This demonstration page uses our WeatherBlox Daily Observations layout. Learn more.

Left ArrowRight Arrow

Hourly Observations for June 20, 2021

Temp ( °F °C ) Dew Point ( °F °C ) Humidity (%) Winds ( mph kmh ) Pressure ( in mb ) Visibility ( mi km ) Precip ( " mm )
12:15 am 00:15 undefined N/A N/A N/A undefined N/A N/A N/A N/A
12:35 am 00:35 undefined 73 23 73 23 100 100 N N/A 29.78 1008 N/A N/A
12:55 am 00:55 Partly Cloudy 73 23 73 23 100 100 N N/A 29.78 1008 10 16 N/A
1:15 am 01:15 Clear N/A N/A N/A SSW 9 15 N/A 10 16 N/A
1:35 am 01:35 undefined N/A N/A N/A SSW 8 13 N/A N/A N/A
1:55 am 01:55 Clear N/A N/A N/A S 6 9 N/A 10 16 N/A
3:35 am 03:35 Clear N/A N/A N/A N N/A N/A 10 16 N/A
3:55 am 03:55 Partly Cloudy N/A N/A N/A N N/A N/A 10 16 N/A
4:15 am 04:15 Partly Cloudy N/A N/A N/A N N/A N/A 10 16 N/A
4:35 am 04:35 Mostly Cloudy 72 22 72 22 100 100 N N/A 29.77 1008 10 16 N/A
4:55 am 04:55 Cloudy 72 22 72 22 100 100 N N/A 29.79 1009 10 16 N/A
5:15 am 05:15 Cloudy 72 22 72 22 100 100 N N/A 29.79 1009 10 16 N/A
5:35 am 05:35 Mostly Cloudy 72 22 72 22 100 100 N N/A 29.79 1009 10 16 N/A
5:55 am 05:55 Partly Cloudy 72 22 72 22 100 100 N N/A 29.78 1009 10 16 N/A
6:15 am 06:15 Clear 72 22 72 22 100 100 N N/A 29.77 1008 10 16 N/A
6:35 am 06:35 Sunny 72 22 72 22 100 100 N N/A 29.77 1008 10 16 N/A
6:55 am 06:55 Sunny 72 22 72 22 100 100 N N/A 29.76 1008 10 16 N/A
7:15 am 07:15 Sunny 72 22 72 22 100 100 N N/A 29.75 1008 10 16 N/A
7:35 am 07:35 Sunny 73 23 73 23 100 100 SSW 9 15 29.75 1007 10 16 N/A
7:56 am 07:56 Sunny 73 23 73 23 100 100 SSW 9 15 29.76 1008 10 16 N/A
8:15 am 08:15 Sunny 73 23 73 23 100 100 SSW 7 11 29.78 1008 10 16 N/A
8:35 am 08:35 Sunny 73 23 73 23 100 100 SSW 10 17 29.79 1009 10 16 N/A
8:55 am 08:55 Partly Cloudy 73 23 73 23 100 100 SSW 10 17 29.80 1009 10 16 N/A
9:15 am 09:15 Cloudy 75 24 75 24 100 100 N N/A 29.79 1009 10 16 N/A
9:35 am 09:35 Mostly Cloudy 77 25 77 25 100 100 SSW 9 15 29.79 1009 10 16 N/A
9:55 am 09:55 Partly Cloudy 77 25 77 25 100 100 SW 9 15 29.78 1009 10 16 N/A
10:15 am 10:15 Mostly Cloudy 77 25 77 25 100 100 SW 8 13 29.77 1008 10 16 N/A
10:35 am 10:35 Mostly Cloudy 79 26 77 25 94 94 SSW 9 15 29.76 1008 10 16 N/A
10:55 am 10:55 Partly Cloudy 79 26 77 25 94 94 SW 3 6 29.77 1008 10 16 N/A
11:15 am 11:15 Mostly Cloudy 81 27 77 25 89 89 SW 9 15 29.77 1008 10 16 N/A
11:35 am 11:35 Mostly Cloudy 81 27 77 25 89 89 SW 7 11 29.76 1008 10 16 N/A
11:55 am 11:55 Mostly Cloudy 82 28 77 25 84 84 WSW 10 17 29.75 1008 10 16 N/A
12:15 pm 12:15 Partly Cloudy 82 28 77 25 84 84 W 10 17 29.75 1008 10 16 N/A
12:35 pm 12:35 Partly Cloudy 82 28 77 25 84 84 N N/A 29.75 1008 10 16 N/A
12:55 pm 12:55 Partly Cloudy 84 29 77 25 79 79 WSW 7 11 29.74 1007 10 16 N/A
1:15 pm 13:15 Partly Cloudy 84 29 77 25 79 79 SW 7 11 29.73 1007 10 16 N/A
1:35 pm 13:35 Mostly Cloudy 84 29 77 25 79 79 N N/A 29.73 1007 10 16 N/A
1:55 pm 13:55 Mostly Cloudy 86 30 77 25 75 75 SSW 8 13 29.71 1006 10 16 N/A
2:15 pm 14:15 Mostly Cloudy 84 29 77 25 79 79 N N/A 29.70 1006 10 16 N/A
2:35 pm 14:35 Mostly Cloudy 86 30 77 25 75 75 N N/A 29.70 1006 10 16 N/A
2:55 pm 14:55 Partly Cloudy 86 30 75 24 70 70 S 8 13 29.70 1006 10 16 N/A
3:15 pm 15:15 Partly Cloudy 86 30 77 25 75 75 S 8 13 29.69 1005 10 16 N/A
3:35 pm 15:35 Partly Cloudy 86 30 77 25 75 75 SSE 9 15 29.69 1005 10 16 N/A
3:55 pm 15:55 Partly Cloudy 86 30 77 25 75 75 SSW 10 17 29.69 1005 10 16 N/A
4:15 pm 16:15 Mostly Cloudy 86 30 79 26 79 79 S 12 19 29.68 1005 10 16 N/A
4:35 pm 16:35 Mostly Cloudy 86 30 79 26 79 79 S 14 22 29.69 1005 10 16 N/A
4:55 pm 16:55 Mostly Cloudy 84 29 79 26 84 84 S 10 17 29.68 1005 10 16 N/A
5:15 pm 17:15 Partly Cloudy 86 30 79 26 79 79 S 12 19 29.67 1005 10 16 N/A
5:35 pm 17:35 Partly Cloudy 86 30 77 25 75 75 SSW 15 24 29.68 1005 10 16 N/A
5:55 pm 17:55 Partly Cloudy 86 30 75 24 70 70 SW 14 22 29.68 1005 10 16 N/A
6:15 pm 18:15 Sunny N/A N/A N/A SW 12 19 N/A 10 16 N/A
6:35 pm 18:35 Partly Cloudy N/A N/A N/A SSW 10 17 N/A 10 16 N/A
6:55 pm 18:55 Mostly Cloudy N/A N/A N/A S 9 15 N/A 10 16 N/A
7:15 pm 19:15 Mostly Cloudy 82 28 79 26 89 89 S 10 17 29.64 1004 10 16 N/A
7:35 pm 19:35 Mostly Cloudy 82 28 79 26 89 89 S 8 13 29.64 1004 10 16 N/A
7:55 pm 19:55 Mostly Cloudy 82 28 79 26 89 89 SSW 12 19 29.64 1004 10 16 N/A
8:15 pm 20:15 Mostly Cloudy 82 28 79 26 89 89 N N/A 29.64 1004 10 16 N/A
8:35 pm 20:35 Sunny 82 28 79 26 89 89 S 10 17 29.63 1004 10 16 N/A
8:55 pm 20:55 Sunny 81 27 77 25 89 89 S 10 17 29.64 1004 10 16 N/A
9:15 pm 21:15 Sunny 81 27 77 25 89 89 S 8 13 29.63 1003 10 16 N/A
9:35 pm 21:35 Clear 81 27 79 26 94 94 N N/A 29.63 1003 10 16 N/A
9:55 pm 21:55 Clear 81 27 79 26 94 94 S 9 15 29.64 1004 10 16 N/A
10:15 pm 22:15 Clear 79 26 79 26 100 100 S 9 15 29.65 1004 10 16 N/A
10:35 pm 22:35 Clear 79 26 77 25 94 94 S 9 15 29.65 1004 10 16 N/A
10:55 pm 22:55 Clear 79 26 77 25 94 94 S 9 15 29.65 1004 10 16 N/A
11:15 pm 23:15 Clear 79 26 77 25 94 94 S 7 11 29.65 1004 10 16 N/A
11:35 pm 23:35 Partly Cloudy 77 25 77 25 100 100 S 8 13 29.64 1004 10 16 N/A
11:55 pm 23:55 Clear 77 25 77 25 100 100 S 8 13 29.63 1003 10 16 N/A

Powered by AerisWeather